Latest Coastal Weather Observations for Cape Flattery

IDQ60701

Issued at 11:15 am EST Sunday 20 April 2014 (issued every 10 minutes, with the page automatically refreshed every 10 minutes)

About coastal observations | Map of coastal stations | Coastal observations for QLD | Marine services | Other Formats
Station Details ID: 031213 Name: CAPE FLATTERY Lat: -14.97 Lon: 145.31 Height: 18.5 m
Data from the previous 72 hours. | See also: Recent months at Cape Flattery
Date/Time
EST
Temp

°C
Wind Pressure Rain
since 9am
mm
Weather Cloud Vis
km
Sea
Height
m
Swell
Dir
 
Speed
knots
Gust
knots
hPa Trend Height
m
Period
s
Dir
20/11:00am 29.5 SE 19 25 1013.8 - 0.0 - - - - - - -
20/10:30am 29.2 SE 19 26 1014.1 - 0.0 - - - - - - -
20/10:03am 27.6 SE 16 26 1014.2 - 0.0 - - - - - - -
20/10:00am 27.1 SE 16 22 1014.1 - 0.0 - - - - - - -
20/09:30am 27.8 SE 16 22 1014.2 - 0.0 - - - - - - -
20/09:00am 28.3 SE 17 25 1013.7 - - - - - - - - -
20/08:30am 27.5 SE 17 23 1013.3 - - - - - - - - -
20/08:00am 27.1 SE 18 24 1013.2 - - - - - - - - -
20/07:52am 26.7 SE 17 27 1013.1 - - - - - - - - -
20/07:30am 26.5 SE 17 23 1012.9 - - - - - - - - -
20/07:00am 26.1 SE 16 21 1012.7 - - - - - - - - -
20/06:30am 25.8 SE 15 24 1012.5 - - - - - - - - -
20/06:00am 25.8 SE 14 20 1012.2 - - - - - - - - -
20/05:30am 25.7 SE 13 18 1012.0 - - - - - - - - -
20/05:00am 25.8 SE 14 21 1011.8 - - - - - - - - -
20/04:30am 25.7 ESE 14 18 1011.9 - - - - - - - - -
20/04:00am 25.8 SE 15 20 1011.7 - - - - - - - - -
20/03:30am 25.8 SE 14 21 1011.8 - - - - - - - - -
20/03:00am 25.9 SE 15 20 1011.9 - - - - - - - - -
20/02:30am 26.0 SE 15 21 1012.1 - - - - - - - - -
20/02:00am 26.0 SE 14 19 1012.3 - - - - - - - - -
20/01:30am 25.9 ESE 13 19 1012.5 - - - - - - - - -
20/01:00am 26.0 SE 15 21 1012.8 - - - - - - - - -
20/12:30am 26.1 ESE 14 20 1013.3 - - - - - - - - -
20/12:00am 26.2 SE 15 22 1013.4 - - - - - - - - -
 
Date/Time
EST
Temp

°C
Wind Pressure Rain
since 9am
mm
Weather Cloud Vis
km
Sea
Height
m
Swell
Dir
 
Speed
knots
Gust
knots
hPa Trend Height
m
Period
s
Dir
19/11:30pm 26.2 SE 16 22 1013.8 - - - - - - - - -
19/11:00pm 26.2 SE 15 21 1013.8 - - - - - - - - -
19/10:30pm 26.2 SE 14 19 1014.0 - - - - - - - - -
19/10:00pm 26.2 SE 15 21 1014.0 - - - - - - - - -
19/09:30pm 26.2 SE 16 22 1014.1 - - - - - - - - -
19/09:00pm 26.3 SE 15 21 1013.9 - - - - - - - - -
19/08:30pm 26.3 SE 15 21 1013.9 - - - - - - - - -
19/08:00pm 26.4 SE 15 22 1013.6 - - - - - - - - -
19/07:30pm 26.3 SE 14 22 1013.2 - - - - - - - - -
19/07:00pm 26.4 SE 15 22 1012.9 - - - - - - - - -
19/06:30pm 26.3 SE 13 20 1012.9 - - - - - - - - -
19/06:00pm 26.5 SE 16 21 1012.7 - - - - - - - - -
19/05:30pm 27.0 SE 15 22 1012.5 - - - - - - - - -
19/05:00pm 27.3 SE 14 22 1012.3 - - - - - - - - -
19/04:30pm 27.9 SE 17 23 1012.1 - - - - - - - - -
19/04:00pm 27.9 SE 16 22 1011.9 - - - - - - - - -
19/03:30pm 28.5 SE 18 24 1011.8 - - - - - - - - -
19/03:00pm 28.6 SE 17 24 1011.8 - - - - - - - - -
19/12:00am 26.5 SE 14 19 1014.7 - 0.0 - - - - - - -
 
Date/Time
EST
Temp

°C
Wind Pressure Rain
since 9am
mm
Weather Cloud Vis
km
Sea
Height
m
Swell
Dir
 
Speed
knots
Gust
knots
hPa Trend Height
m
Period
s
Dir
18/11:30pm 26.5 SE 11 16 1015.1 - 0.0 - - - - - - -
18/11:00pm 26.5 ESE 12 18 1015.2 - 0.0 - - - - - - -
18/10:30pm 26.5 SE 13 20 1015.1 - 0.0 - - - - - - -
18/10:00pm 26.6 ESE 13 18 1015.0 - 0.0 - - - - - - -
18/09:30pm 26.7 ESE 13 17 1015.0 - 0.0 - - - - - - -
18/09:00pm 26.6 SE 12 19 1014.9 - 0.0 - - - - - - -
18/08:30pm 26.9 SE 13 17 1014.7 - 0.0 - - - - - - -
18/08:00pm 26.7 SE 12 17 1014.4 - 0.0 - - - - - - -
18/07:30pm 26.8 SE 13 21 1013.9 - 0.0 - - - - - - -
18/07:00pm 26.8 SE 13 17 1013.5 - 0.0 - - - - - - -
18/06:30pm 26.8 SE 12 17 1013.4 - 0.0 - - - - - - -
18/06:00pm 26.9 SE 13 19 1012.9 - 0.0 - - - - - - -
18/05:30pm 27.2 SE 13 19 1012.8 - 0.0 - - - - - - -
18/05:00pm 27.9 SE 14 18 1012.7 - 0.0 - - - - - - -
18/04:30pm 27.9 SE 15 20 1012.5 - 0.0 - - - - - - -
18/04:00pm 28.9 SE 16 20 1012.3 - 0.0 - - - - - - -
18/03:30pm 29.3 SE 13 18 1012.1 - 0.0 - - - - - - -
18/03:00pm 29.8 SE 14 19 1012.1 - 0.0 - - - - - - -
18/02:30pm 29.0 SE 15 21 1012.3 - 0.0 - - - - - - -
18/02:00pm 30.2 SE 15 22 1012.4 - 0.0 - - - - - - -
18/01:30pm 30.4 SE 15 21 1012.7 - 0.0 - - - - - - -
18/01:00pm 30.3 SE 17 22 1012.9 - 0.0 - - - - - - -
18/12:30pm 29.9 SE 18 23 1013.1 - 0.0 - - - - - - -
18/12:00pm 29.5 SE 17 22 1013.3 - 0.0 - - - - - - -
18/11:30am 30.2 ESE 17 22 1013.6 - 0.0 - - - - - - -
18/11:00am 29.6 SE 16 23 1014.0 - 0.0 - - - - - - -
18/10:30am 29.2 SE 17 23 1014.1 - 0.0 - - - - - - -
18/10:00am 28.8 SE 15 21 1014.4 - 0.0 - - - - - - -
18/09:30am 28.9 SE 16 22 1014.3 - 0.0 - - - - - - -
18/09:00am 28.3 SE 17 24 1014.1 - - - - - - - - -
18/08:30am 28.1 SE 16 23 1014.0 - - - - - - - - -
18/08:00am 27.9 ESE 14 22 1013.6 - - - - - - - - -
18/07:30am 26.7 SE 14 19 1013.5 - - - - - - - - -
18/07:00am 26.5 SE 14 20 1013.1 - - - - - - - - -
18/06:30am 26.3 SE 15 20 1012.9 - - - - - - - - -
18/06:00am 26.3 SE 14 19 1012.6 - - - - - - - - -
18/05:30am 26.3 SE 15 21 1012.4 - - - - - - - - -
18/05:00am 26.4 SE 15 20 1012.1 - - - - - - - - -
18/04:30am 26.3 SE 14 20 1012.0 - - - - - - - - -
18/04:00am 26.3 SE 14 20 1011.9 - - - - - - - - -
18/03:30am 26.3 SE 15 20 1011.9 - - - - - - - - -
18/03:00am 26.4 SE 16 23 1011.8 - - - - - - - - -
18/02:30am 26.3 ESE 14 20 1012.0 - - - - - - - - -
18/02:00am 26.4 SE 14 20 1012.3 - - - - - - - - -
18/01:30am 26.6 SE 15 20 1012.7 - - - - - - - - -
18/01:00am 26.5 SE 15 23 1013.0 - - - - - - - - -
18/12:30am 26.5 SE 15 22 1013.5 - - - - - - - - -
18/12:00am 26.7 SE 15 24 1013.7 - - - - - - - - -
 
Date/Time
EST
Temp

°C
Wind Pressure Rain
since 9am
mm
Weather Cloud Vis
km
Sea
Height
m
Swell
Dir
 
Speed
knots
Gust
knots
hPa Trend Height
m
Period
s
Dir
17/11:30pm 26.7 SE 16 22 1014.3 - - - - - - - - -
17/11:00pm 26.7 SE 16 23 1014.6 - - - - - - - - -
17/10:30pm 26.9 SE 16 23 1014.6 - - - - - - - - -
17/10:00pm 26.8 SE 15 21 1014.6 - - - - - - - - -
17/09:30pm 26.8 SE 15 21 1014.7 - - - - - - - - -
17/09:00pm 26.8 SE 15 21 1014.5 - - - - - - - - -
17/08:30pm 26.8 SE 16 21 1014.3 - - - - - - - - -
17/08:00pm 26.2 SE 13 17 1014.3 - - - - - - - - -
17/07:30pm 25.7 SE 15 22 1013.8 - - - - - - - - -
17/07:00pm 26.9 SE 13 18 1013.4 - - - - - - - - -
17/06:30pm 27.0 SE 14 19 1013.1 - - - - - - - - -
17/06:00pm 27.0 SE 12 17 1012.7 - - - - - - - - -
17/05:30pm 27.3 SE 14 20 1012.3 - - - - - - - - -
17/05:00pm 27.1 SE 13 20 1012.1 - - - - - - - - -
17/04:30pm 27.6 SE 15 21 1011.9 - - - - - - - - -
17/04:00pm 27.2 ESE 15 23 1011.8 - - - - - - - - -
17/03:30pm 27.3 ESE 16 23 1012.1 - - - - - - - - -
17/03:00pm 28.9 SE 14 19 1011.9 - - - - - - - - -
17/02:30pm 26.5 SE 15 19 1012.2 - - - - - - - - -
17/02:00pm 27.0 SE 15 20 1012.5 - - - - - - - - -
17/01:30pm 26.3 SE 16 22 1012.6 - - - - - - - - -
17/01:00pm 28.7 SSE 17 23 1012.9 - - - - - - - - -
17/12:30pm 29.0 SSE 19 23 1013.1 - - - - - - - - -
17/12:00pm 29.6 SSE 18 25 1013.5 - - - - - - - - -
17/11:30am 27.3 SSE 18 23 1014.3 - - - - - - - - -

Other Formats:

Comma delimited format used in spreadsheet applications
http://www.bom.gov.au/fwo/IDQ60701/IDQ60701.94188.axf

JavaScript Object Notation format (JSON) in row-major order
http://www.bom.gov.au/fwo/IDQ60701/IDQ60701.94188.json